Skip Page Navigation
NASA JPL Caltech
NASA Logo - Jet Propulsion Laboratory + View the NASA Portal
+ Near-Earth Object (NEO) Program
Search JPL
JPL Home Earth Solar System Stars & Galaxies Technology
JPL Solar System Dynamics
BODIES ORBITS EPHEMERIDES TOOLS PHYSICAL DATA DISCOVERY FAQ SITE MAP
JPL Small-Body Database Browser
Search: [ help ]  
18150 Lopez-Moreno (2000 OC60)
Classification: Outer Main-belt Asteroid          SPK-ID: 2018150
Ephemeris | Orbit Diagram | Orbital Elements | Physical Parameters | Discovery Circumstances ]

[ show orbit diagram ]
Orbital Elements at Epoch 2456400.5 (2013-Apr-18.0) TDB
Reference: MPO236490 (heliocentric ecliptic J2000)
 Element Value Uncertainty (1-sigma)   Units 
e 0.0966026 n/a  
a 3.4411491 n/a AU
q 3.1087251 n/a AU
i 12.77365 n/a deg
node 153.36833 n/a deg
peri 350.27491 n/a deg
M 176.86379 n/a deg
tp 2455255.0132125
(2010-Feb-27.51321250)
n/a JED
period 2331.5979121
6.38
n/a
n/a
d
yr
n 0.15440055 n/a deg/d
Q 3.7735731 n/a AU
  Orbit Determination Parameters
   # obs. used (total)      661  
   first obs. used      1991-??-??  
   last obs. used      2012-08-08  
   # oppositions      14  
   planetary ephem.      DE403  
   condition code      0  
   fit RMS      0.57  
   data source      MPC:mpn  
   producer      MPCLINUX  

Additional Information
 T_jup = 3.091 

Ephemeris | Orbit Diagram | Orbital Elements | Physical Parameters | Discovery Circumstances ]

Physical Parameter Table
Parameter Symbol Value Units Sigma Reference Notes
absolute magnitude H 12.3 mag n/a PDS3 (MPO 4259)  

18150 Lopez-Moreno           Discovered 2000 July 29 by the Lowell Observatory Near-Earth Object Search at the Anderson Mesa Station.
José J. Lopez-Moreno (b. 1950), of the Instituto de Astrofisica de Andalucia, is a planetary scientist interested in planetary atmospheres. As Co-I of the Huygens Atmospheric Structure Instrument he studied the physical properties of Titan's atmosphere. The name was suggested by M. Fulchignoni and M. A. Barucci.
NOTE: some special characters may not display properly (any characters within {} are an attempt to place the proper accent above a character)
Reference: 20060613/MPCPages.arcLast Updated: 2008-05-22

Alternate Designations
 2000 OC60 = 1991 EH6 = 1998 HN104 = 1999 NT57 
Ephemeris | Orbit Diagram | Orbital Elements | Physical Parameters | Discovery Circumstances ]
ABOUT SSD CREDITS/AWARDS PRIVACY/COPYRIGHT GLOSSARY LINKS
FirstGov 2013-May-25 23:32 UT
(server date/time)  
NASA Home Page
Site Manager:   Donald K. Yeomans
Webmaster  Alan B. Chamberlin